Time,TemperatureF,DewpointF,PressureIn,WindDirection,WindDirectionDegrees,WindSpeedMPH,WindSpeedGustMPH,Humidity,HourlyPrecipIn,Conditions,Clouds,dailyrainin,SoftwareType,DateUTC
2013-01-06 00:00:00,40.5,35.5,30.19,South,171,7.0,11.0,82,0.00,,SKC,0.00,VWS V14.01,2013-01-06 05:00:00,
2013-01-06 00:01:00,40.5,35.5,30.19,SSE,155,9.0,11.0,82,0.00,,SKC,0.00,VWS V14.01,2013-01-06 05:01:00,
2013-01-06 00:07:00,40.6,35.8,30.20,SSE,167,5.0,9.0,83,0.00,,SKC,0.00,VWS V14.01,2013-01-06 05:07:00,
2013-01-06 00:12:00,40.5,35.8,30.19,South,183,10.0,13.0,83,0.00,,SKC,0.00,VWS V14.01,2013-01-06 05:12:00,
2013-01-06 00:17:00,40.5,35.5,30.18,South,174,5.0,13.0,82,0.00,,SKC,0.00,VWS V14.01,2013-01-06 05:17:00,
2013-01-06 00:22:00,40.6,35.8,30.17,South,179,11.0,14.0,83,0.00,,SKC,0.00,VWS V14.01,2013-01-06 05:22:00,
2013-01-06 00:27:00,40.6,35.8,30.17,South,170,9.0,13.0,83,0.00,,SKC,0.00,VWS V14.01,2013-01-06 05:27:00,
2013-01-06 00:32:00,40.6,35.8,30.17,South,178,8.0,13.0,83,0.00,,SKC,0.00,VWS V14.01,2013-01-06 05:32:00,
2013-01-06 00:37:00,40.6,35.8,30.17,South,171,8.0,12.0,83,0.00,,SKC,0.00,VWS V14.01,2013-01-06 05:37:00,
2013-01-06 00:42:00,40.6,35.8,30.17,South,178,3.0,9.0,83,0.00,,SKC,0.00,VWS V14.01,2013-01-06 05:42:00,
2013-01-06 00:47:00,40.6,35.8,30.17,South,171,5.0,9.0,83,0.00,,SKC,0.00,VWS V14.01,2013-01-06 05:47:00,
2013-01-06 00:52:00,40.6,35.8,30.17,SSW,198,4.0,11.0,83,0.00,,SKC,0.00,VWS V14.01,2013-01-06 05:52:00,
2013-01-06 00:57:00,40.6,35.8,30.17,South,173,3.0,10.0,83,0.00,,SKC,0.00,VWS V14.01,2013-01-06 05:57:00,
2013-01-06 01:02:00,40.7,36.0,30.18,South,185,3.0,6.0,83,0.00,,SKC,0.00,VWS V14.01,2013-01-06 06:02:00,
2013-01-06 01:07:00,40.7,36.2,30.18,South,171,4.0,9.0,84,0.00,,SKC,0.00,VWS V14.01,2013-01-06 06:07:00,
2013-01-06 01:12:00,40.8,36.3,30.18,SSE,160,6.0,9.0,84,0.00,,SKC,0.00,VWS V14.01,2013-01-06 06:12:00,
2013-01-06 01:17:00,40.8,36.7,30.19,SSE,159,5.0,7.0,85,0.00,,SKC,0.00,VWS V14.01,2013-01-06 06:17:00,
2013-01-06 01:22:00,40.9,36.8,30.19,SSE,147,4.0,10.0,85,0.00,,SKC,0.00,VWS V14.01,2013-01-06 06:22:00,
2013-01-06 01:27:00,40.8,36.7,30.19,SSE,159,6.0,7.0,85,0.00,,SKC,0.00,VWS V14.01,2013-01-06 06:27:00,
2013-01-06 01:32:00,40.8,36.7,30.18,South,169,5.0,7.0,85,0.00,,SKC,0.00,VWS V14.01,2013-01-06 06:32:00,
2013-01-06 01:37:00,40.8,36.7,30.18,SSE,163,3.0,6.0,85,0.00,,SKC,0.00,VWS V14.01,2013-01-06 06:37:00,
2013-01-06 01:42:00,40.7,36.5,30.17,South,175,6.0,7.0,85,0.00,,SKC,0.00,VWS V14.01,2013-01-06 06:42:00,
2013-01-06 01:47:00,40.7,36.8,30.17,SSW,192,4.0,11.0,86,0.00,,SKC,0.00,VWS V14.01,2013-01-06 06:47:00,
2013-01-06 01:52:00,40.7,36.8,30.17,SSE,151,3.0,7.0,86,0.00,,SKC,0.00,VWS V14.01,2013-01-06 06:52:00,
2013-01-06 01:57:00,40.7,36.8,30.17,South,177,4.0,7.0,86,0.00,,SKC,0.00,VWS V14.01,2013-01-06 06:57:00,
2013-01-06 02:02:00,40.6,36.5,30.17,SSE,163,5.0,9.0,85,0.00,,SKC,0.00,VWS V14.01,2013-01-06 07:02:00,
2013-01-06 02:07:00,40.7,36.2,30.17,South,172,7.0,7.0,84,0.00,,SKC,0.00,VWS V14.01,2013-01-06 07:07:00,
2013-01-06 02:12:00,40.8,36.7,30.16,SSE,164,6.0,9.0,85,0.00,,SKC,0.00,VWS V14.01,2013-01-06 07:12:00,
2013-01-06 02:17:00,40.8,36.3,30.17,SSE,166,5.0,10.0,84,0.00,,SKC,0.00,VWS V14.01,2013-01-06 07:17:00,
2013-01-06 02:22:00,40.8,36.0,30.16,SSE,163,6.0,6.0,83,0.00,,SKC,0.00,VWS V14.01,2013-01-06 07:22:00,
2013-01-06 02:27:00,40.8,36.0,30.17,SSE,162,6.0,6.0,83,0.00,,SKC,0.00,VWS V14.01,2013-01-06 07:27:00,
2013-01-06 02:32:00,40.8,36.0,30.17,SSE,165,3.0,6.0,83,0.00,,SKC,0.00,VWS V14.01,2013-01-06 07:32:00,
2013-01-06 02:37:00,40.8,36.0,30.16,South,169,5.0,9.0,83,0.00,,SKC,0.00,VWS V14.01,2013-01-06 07:37:00,
2013-01-06 02:42:00,40.8,36.0,30.16,SSE,168,5.0,6.0,83,0.00,,SKC,0.00,VWS V14.01,2013-01-06 07:42:00,
2013-01-06 02:47:00,40.8,36.3,30.15,SSE,159,3.0,6.0,84,0.00,,SKC,0.00,VWS V14.01,2013-01-06 07:47:00,
2013-01-06 02:52:00,40.7,36.2,30.15,SSE,161,4.0,9.0,84,0.00,,SKC,0.00,VWS V14.01,2013-01-06 07:52:00,
2013-01-06 02:57:00,40.7,36.2,30.15,SSE,163,4.0,5.0,84,0.00,,SKC,0.00,VWS V14.01,2013-01-06 07:57:00,
2013-01-06 03:02:00,40.7,36.2,30.14,South,170,4.0,7.0,84,0.00,,SKC,0.00,VWS V14.01,2013-01-06 08:02:00,
2013-01-06 03:07:00,40.6,36.5,30.12,SSE,164,9.0,10.0,85,0.00,,SKC,0.00,VWS V14.01,2013-01-06 08:07:00,
2013-01-06 03:12:00,40.5,36.7,30.12,South,173,9.0,12.0,86,0.00,,SKC,0.00,VWS V14.01,2013-01-06 08:12:00,
2013-01-06 03:17:00,40.3,36.8,30.12,SSE,165,6.0,10.0,87,0.00,,SKC,0.00,VWS V14.01,2013-01-06 08:17:00,
2013-01-06 03:22:00,40.2,36.7,30.11,South,177,8.0,8.0,87,0.00,,SKC,0.00,VWS V14.01,2013-01-06 08:22:00,
2013-01-06 03:27:00,40.2,36.7,30.12,SSW,197,6.0,10.0,87,0.00,,SKC,0.00,VWS V14.01,2013-01-06 08:27:00,
2013-01-06 03:32:00,40.2,36.7,30.10,SSE,165,4.0,10.0,87,0.00,,SKC,0.00,VWS V14.01,2013-01-06 08:32:00,
2013-01-06 03:38:00,40.2,36.7,30.11,SSE,167,5.0,9.0,87,0.00,,SKC,0.00,VWS V14.01,2013-01-06 08:38:00,
2013-01-06 03:43:00,40.3,36.8,30.11,SSE,168,5.0,8.0,87,0.00,,SKC,0.00,VWS V14.01,2013-01-06 08:43:00,
2013-01-06 03:48:00,40.3,36.5,30.10,SSE,168,7.0,10.0,86,0.00,,SKC,0.00,VWS V14.01,2013-01-06 08:48:00,
2013-01-06 03:53:00,40.4,36.5,30.10,SSE,168,5.0,10.0,86,0.00,,SKC,0.00,VWS V14.01,2013-01-06 08:53:00,
2013-01-06 03:58:00,40.4,36.5,30.11,SSE,163,6.0,10.0,86,0.00,,SKC,0.00,VWS V14.01,2013-01-06 08:58:00,
2013-01-06 04:03:00,40.5,36.7,30.11,South,190,7.0,12.0,86,0.00,,SKC,0.00,VWS V14.01,2013-01-06 09:03:00,
2013-01-06 04:08:00,40.6,36.8,30.11,SSE,154,6.0,9.0,86,0.00,,SKC,0.00,VWS V14.01,2013-01-06 09:08:00,
2013-01-06 04:13:00,40.6,36.8,30.11,SSE,165,5.0,9.0,86,0.00,,SKC,0.00,VWS V14.01,2013-01-06 09:13:00,
2013-01-06 04:18:00,40.6,36.8,30.11,South,174,3.0,8.0,86,0.00,,SKC,0.00,VWS V14.01,2013-01-06 09:18:00,
2013-01-06 04:23:00,40.7,36.8,30.11,SSW,195,3.0,5.0,86,0.00,,SKC,0.00,VWS V14.01,2013-01-06 09:23:00,
2013-01-06 04:28:00,40.7,36.8,30.10,SSE,166,4.0,5.0,86,0.00,,SKC,0.00,VWS V14.01,2013-01-06 09:28:00,
2013-01-06 04:33:00,40.7,36.8,30.11,SSE,164,3.0,5.0,86,0.00,,SKC,0.00,VWS V14.01,2013-01-06 09:33:00,
2013-01-06 04:38:00,40.7,37.1,30.11,SSW,202,4.0,7.0,87,0.00,,SKC,0.00,VWS V14.01,2013-01-06 09:38:00,
2013-01-06 04:43:00,40.8,37.2,30.12,WSW,248,4.0,6.0,87,0.00,,SKC,0.00,VWS V14.01,2013-01-06 09:43:00,
2013-01-06 04:48:00,40.8,37.2,30.12,WSW,241,5.0,6.0,87,0.00,,SKC,0.00,VWS V14.01,2013-01-06 09:48:00,
2013-01-06 04:53:00,40.8,36.7,30.11,SSW,208,3.0,6.0,85,0.00,,SKC,0.00,VWS V14.01,2013-01-06 09:53:00,
2013-01-06 04:58:00,40.9,36.5,30.12,SSW,212,4.0,5.0,84,0.00,,SKC,0.00,VWS V14.01,2013-01-06 09:58:00,
2013-01-06 05:03:00,40.9,36.5,30.12,SW,229,3.0,5.0,84,0.00,,SKC,0.00,VWS V14.01,2013-01-06 10:03:00,
2013-01-06 05:08:00,40.8,36.3,30.11,SW,231,3.0,3.0,84,0.00,,SKC,0.00,VWS V14.01,2013-01-06 10:08:00,
2013-01-06 05:13:00,40.7,36.2,30.11,SW,231,0.0,0.0,84,0.00,,SKC,0.00,VWS V14.01,2013-01-06 10:13:00,
2013-01-06 05:18:00,40.6,36.2,30.11,SW,225,2.0,4.0,84,0.00,,SKC,0.00,VWS V14.01,2013-01-06 10:18:00,
2013-01-06 05:23:00,40.5,36.0,30.11,SW,219,0.0,3.0,84,0.00,,SKC,0.00,VWS V14.01,2013-01-06 10:23:00,
2013-01-06 05:28:00,40.5,36.0,30.11,SW,217,0.0,0.0,84,0.00,,SKC,0.00,VWS V14.01,2013-01-06 10:28:00,
2013-01-06 05:33:00,40.4,36.0,30.11,SW,215,3.0,4.0,84,0.00,,SKC,0.00,VWS V14.01,2013-01-06 10:33:00,
2013-01-06 05:38:00,40.4,36.0,30.11,SW,214,0.0,0.0,84,0.00,,SKC,0.00,VWS V14.01,2013-01-06 10:38:00,
2013-01-06 05:43:00,40.2,35.8,30.11,SW,215,0.0,3.0,84,0.00,,SKC,0.00,VWS V14.01,2013-01-06 10:43:00,
2013-01-06 05:48:00,40.0,35.6,30.11,SW,215,0.0,0.0,84,0.00,,SKC,0.00,VWS V14.01,2013-01-06 10:48:00,
2013-01-06 05:53:00,39.7,35.3,30.11,SW,215,0.0,0.0,84,0.00,,SKC,0.00,VWS V14.01,2013-01-06 10:53:00,
2013-01-06 05:58:00,39.5,35.1,30.10,SW,215,0.0,0.0,84,0.00,,SKC,0.00,VWS V14.01,2013-01-06 10:58:00,
2013-01-06 06:03:00,39.3,34.9,30.11,SW,215,0.0,0.0,84,0.00,,SKC,0.00,VWS V14.01,2013-01-06 11:03:00,
2013-01-06 06:08:00,39.1,35.0,30.11,SW,215,0.0,0.0,85,0.00,,SKC,0.00,VWS V14.01,2013-01-06 11:08:00,
2013-01-06 06:13:00,38.8,34.7,30.11,SW,215,0.0,0.0,85,0.00,,SKC,0.00,VWS V14.01,2013-01-06 11:13:00,
2013-01-06 06:18:00,38.6,34.8,30.11,SW,215,0.0,0.0,86,0.00,,SKC,0.00,VWS V14.01,2013-01-06 11:18:00,
2013-01-06 06:23:00,38.3,34.5,30.11,SW,215,0.0,0.0,86,0.00,,SKC,0.00,VWS V14.01,2013-01-06 11:23:00,
2013-01-06 06:28:00,37.9,34.1,30.11,SW,215,0.0,0.0,86,0.00,,SKC,0.00,VWS V14.01,2013-01-06 11:28:00,
2013-01-06 06:33:00,37.5,34.0,30.12,SW,215,0.0,0.0,87,0.00,,SKC,0.00,VWS V14.01,2013-01-06 11:33:00,
2013-01-06 06:38:00,37.0,33.8,30.12,SW,215,0.0,0.0,88,0.00,,SKC,0.00,VWS V14.01,2013-01-06 11:38:00,
2013-01-06 06:43:00,36.8,33.9,30.11,SW,215,0.0,0.0,89,0.00,,SCT090,0.00,VWS V14.01,2013-01-06 11:43:00,
2013-01-06 06:48:00,36.7,34.0,30.11,SW,215,0.0,0.0,90,0.00,,SCT090,0.00,VWS V14.01,2013-01-06 11:48:00,
2013-01-06 06:53:00,36.5,33.8,30.11,SW,215,0.0,0.0,90,0.00,,SCT090,0.00,VWS V14.01,2013-01-06 11:53:00,
2013-01-06 06:58:00,36.2,33.6,30.11,SW,215,0.0,0.0,90,0.00,,SCT090,0.00,VWS V14.01,2013-01-06 11:58:00,
2013-01-06 07:03:00,36.0,33.4,30.12,SW,215,0.0,0.0,90,0.00,,SCT090,0.00,VWS V14.01,2013-01-06 12:03:00,
2013-01-06 07:08:00,35.9,33.5,30.12,SW,215,0.0,0.0,91,0.00,,SCT090,0.00,VWS V14.01,2013-01-06 12:08:00,
2013-01-06 07:13:00,35.7,33.3,30.12,SW,215,0.0,0.0,91,0.00,,SCT090,0.00,VWS V14.01,2013-01-06 12:13:00,
2013-01-06 07:18:00,35.4,33.0,30.12,SW,215,0.0,0.0,91,0.00,,SCT090,0.00,VWS V14.01,2013-01-06 12:18:00,
2013-01-06 07:23:00,35.2,32.8,30.12,SW,215,0.0,0.0,91,0.00,,SCT090,0.00,VWS V14.01,2013-01-06 12:23:00,
2013-01-06 07:28:00,34.9,32.5,30.12,SW,215,0.0,0.0,91,0.00,,SCT090,0.00,VWS V14.01,2013-01-06 12:28:00,
2013-01-06 07:33:00,34.8,32.7,30.12,SW,215,0.0,0.0,92,0.00,,SCT090,0.00,VWS V14.01,2013-01-06 12:33:00,
2013-01-06 07:38:00,34.7,32.6,30.12,SW,215,0.0,0.0,92,0.00,,SCT090,0.00,VWS V14.01,2013-01-06 12:38:00,
2013-01-06 07:43:00,34.7,32.6,30.12,SW,215,0.0,0.0,92,0.00,,SCT090,0.00,VWS V14.01,2013-01-06 12:43:00,
2013-01-06 07:48:00,34.6,32.5,30.12,SW,215,0.0,0.0,92,0.00,,SCT090,0.00,VWS V14.01,2013-01-06 12:48:00,
2013-01-06 07:53:00,34.6,32.8,30.12,SW,215,0.0,0.0,93,0.00,,SCT090,0.00,VWS V14.01,2013-01-06 12:53:00,
2013-01-06 07:58:00,34.7,32.9,30.12,SW,215,0.0,0.0,93,0.00,,SCT090,0.00,VWS V14.01,2013-01-06 12:58:00,
2013-01-06 08:03:00,34.8,33.0,30.12,SW,215,0.0,0.0,93,0.00,,SCT090,0.00,VWS V14.01,2013-01-06 13:03:00,
2013-01-06 08:09:00,35.1,33.3,30.12,SW,215,0.0,0.0,93,0.00,,SCT090,0.00,VWS V14.01,2013-01-06 13:09:00,
2013-01-06 08:14:00,35.5,34.0,30.12,SW,215,0.0,0.0,94,0.00,,BKN080,0.00,VWS V14.01,2013-01-06 13:14:00,
2013-01-06 08:19:00,35.8,34.0,30.12,SW,215,0.0,0.0,93,0.00,,BKN080,0.00,VWS V14.01,2013-01-06 13:19:00,
2013-01-06 08:24:00,36.0,34.2,30.12,SW,215,0.0,0.0,93,0.00,,BKN080,0.00,VWS V14.01,2013-01-06 13:24:00,
2013-01-06 08:29:00,36.2,34.4,30.12,SW,215,0.0,0.0,93,0.00,,BKN080,0.00,VWS V14.01,2013-01-06 13:29:00,
2013-01-06 08:34:00,36.6,35.0,30.12,SW,215,0.0,0.0,94,0.00,,BKN080,0.00,VWS V14.01,2013-01-06 13:34:00,
2013-01-06 08:39:00,37.0,35.4,30.12,SW,215,0.0,0.0,94,0.00,,BKN080,0.00,VWS V14.01,2013-01-06 13:39:00,
2013-01-06 08:44:00,37.4,35.8,30.12,SW,215,0.0,0.0,94,0.00,,SCT090,0.00,VWS V14.01,2013-01-06 13:44:00,
2013-01-06 08:49:00,38.0,36.4,30.12,SW,215,0.0,0.0,94,0.00,,SCT090,0.00,VWS V14.01,2013-01-06 13:49:00,
2013-01-06 08:54:00,38.4,36.6,30.11,SW,215,0.0,0.0,93,0.00,,SCT090,0.00,VWS V14.01,2013-01-06 13:54:00,
2013-01-06 08:59:00,38.9,37.0,30.12,SW,215,2.0,2.0,93,0.00,,SCT090,0.00,VWS V14.01,2013-01-06 13:59:00,
2013-01-06 09:04:00,39.5,37.4,30.12,WSW,254,4.0,4.0,92,0.00,,SCT090,0.00,VWS V14.01,2013-01-06 14:04:00,
2013-01-06 09:09:00,40.1,37.1,30.12,SW,225,2.0,4.0,89,0.00,,SCT090,0.00,VWS V14.01,2013-01-06 14:09:00,
2013-01-06 09:14:00,40.5,36.7,30.12,WSW,248,5.0,6.0,86,0.00,,SCT090,0.00,VWS V14.01,2013-01-06 14:14:00,
2013-01-06 09:19:00,40.9,36.5,30.12,WSW,239,3.0,5.0,84,0.00,,SCT090,0.00,VWS V14.01,2013-01-06 14:19:00,
2013-01-06 09:24:00,41.2,36.4,30.12,SW,234,2.0,5.0,83,0.00,,SCT090,0.00,VWS V14.01,2013-01-06 14:24:00,
2013-01-06 09:29:00,41.5,36.1,30.12,SW,220,5.0,5.0,81,0.00,,SCT090,0.00,VWS V14.01,2013-01-06 14:29:00,
2013-01-06 09:34:00,41.6,35.6,30.12,SW,220,5.0,5.0,79,0.00,,SCT090,0.00,VWS V14.01,2013-01-06 14:34:00,
2013-01-06 09:39:00,41.7,35.4,30.13,SW,220,4.0,5.0,78,0.00,,SCT090,0.00,VWS V14.01,2013-01-06 14:39:00,
2013-01-06 09:44:00,41.8,35.1,30.13,WSW,249,6.0,6.0,77,0.00,,SCT150,0.00,VWS V14.01,2013-01-06 14:44:00,
2013-01-06 09:49:00,41.8,34.8,30.13,SW,233,2.0,6.0,76,0.00,,SCT150,0.00,VWS V14.01,2013-01-06 14:49:00,
2013-01-06 09:54:00,42.0,35.0,30.13,West,261,3.0,6.0,76,0.00,,SCT150,0.00,VWS V14.01,2013-01-06 14:54:00,
2013-01-06 09:59:00,42.2,35.2,30.13,SW,216,6.0,6.0,76,0.00,,SCT150,0.00,VWS V14.01,2013-01-06 14:59:00,
2013-01-06 10:04:00,42.2,34.5,30.13,WSW,251,2.0,6.0,74,0.00,,SCT150,0.00,VWS V14.01,2013-01-06 15:04:00,
2013-01-06 10:09:00,42.3,35.6,30.13,WSW,238,3.0,6.0,77,0.00,,SCT150,0.00,VWS V14.01,2013-01-06 15:09:00,
2013-01-06 10:14:00,42.4,35.7,30.13,WSW,241,2.0,4.0,77,0.00,,SCT150,0.00,VWS V14.01,2013-01-06 15:14:00,
2013-01-06 10:19:00,42.4,35.4,30.13,SSW,192,2.0,5.0,76,0.00,,SCT150,0.00,VWS V14.01,2013-01-06 15:19:00,
2013-01-06 10:24:00,42.3,35.3,30.13,WSW,240,3.0,6.0,76,0.00,,SCT150,0.00,VWS V14.01,2013-01-06 15:24:00,
2013-01-06 10:29:00,42.0,35.0,30.12,SW,215,0.0,5.0,76,0.00,,SCT150,0.00,VWS V14.01,2013-01-06 15:29:00,
2013-01-06 10:34:00,41.9,35.2,30.12,SSW,213,0.0,0.0,77,0.00,,SCT150,0.00,VWS V14.01,2013-01-06 15:34:00,
2013-01-06 10:39:00,41.9,35.5,30.12,SSW,213,0.0,2.0,78,0.00,,SCT150,0.00,VWS V14.01,2013-01-06 15:39:00,
2013-01-06 10:44:00,42.1,35.8,30.11,SW,235,3.0,4.0,78,0.00,,SCT250,0.00,VWS V14.01,2013-01-06 15:44:00,
2013-01-06 10:49:00,42.5,35.8,30.11,SW,217,2.0,5.0,77,0.00,,SCT250,0.00,VWS V14.01,2013-01-06 15:49:00,
2013-01-06 10:54:00,42.6,35.2,30.11,WSW,240,0.0,3.0,75,0.00,,SCT250,0.00,VWS V14.01,2013-01-06 15:54:00,
2013-01-06 10:59:00,42.9,36.2,30.10,West,259,0.0,0.0,77,0.00,,SCT250,0.00,VWS V14.01,2013-01-06 15:59:00,
2013-01-06 11:04:00,43.6,36.9,30.10,South,169,1.0,7.0,77,0.00,,SCT250,0.00,VWS V14.01,2013-01-06 16:04:00,
2013-01-06 11:09:00,43.9,36.8,30.10,SSE,151,4.0,6.0,76,0.00,,SCT250,0.00,VWS V14.01,2013-01-06 16:09:00,
2013-01-06 11:14:00,43.7,37.3,30.09,SE,146,5.0,6.0,78,0.00,,SCT250,0.00,VWS V14.01,2013-01-06 16:14:00,
2013-01-06 11:19:00,43.5,37.4,30.09,SE,146,5.0,5.0,79,0.00,,SCT250,0.00,VWS V14.01,2013-01-06 16:19:00,
2013-01-06 11:24:00,43.3,37.6,30.08,SE,135,4.0,5.0,80,0.00,,SCT250,0.00,VWS V14.01,2013-01-06 16:24:00,
2013-01-06 11:29:00,43.0,37.6,30.09,SSE,164,4.0,5.0,81,0.00,,SCT250,0.00,VWS V14.01,2013-01-06 16:29:00,
2013-01-06 11:34:00,43.1,37.7,30.08,SE,143,5.0,6.0,81,0.00,,SCT250,0.00,VWS V14.01,2013-01-06 16:34:00,
2013-01-06 11:39:00,43.1,37.4,30.08,SSE,154,5.0,7.0,80,0.00,,SCT200,0.00,VWS V14.01,2013-01-06 16:39:00,
2013-01-06 11:44:00,43.3,37.9,30.08,SW,215,2.0,6.0,81,0.00,,SCT200,0.00,VWS V14.01,2013-01-06 16:44:00,
2013-01-06 11:50:00,43.7,37.3,30.08,SSE,162,2.0,4.0,78,0.00,,SCT200,0.00,VWS V14.01,2013-01-06 16:50:00,
2013-01-06 11:55:00,44.2,37.1,30.08,WSW,244,4.0,6.0,76,0.00,,SCT200,0.00,VWS V14.01,2013-01-06 16:55:00,
2013-01-06 12:00:00,44.2,36.5,30.08,SW,221,6.0,6.0,74,0.00,,SCT200,0.00,VWS V14.01,2013-01-06 17:00:00,
2013-01-06 12:05:00,44.2,36.8,30.07,South,177,4.0,7.0,75,0.00,,SCT200,0.00,VWS V14.01,2013-01-06 17:05:00,
2013-01-06 12:10:00,44.1,36.0,30.07,South,174,3.0,5.0,73,0.00,,SCT200,0.00,VWS V14.01,2013-01-06 17:10:00,
2013-01-06 12:15:00,44.1,35.3,30.06,SE,137,2.0,6.0,71,0.00,,SCT200,0.00,VWS V14.01,2013-01-06 17:15:00,
2013-01-06 12:20:00,44.3,36.2,30.06,South,169,3.0,5.0,73,0.00,,SCT200,0.00,VWS V14.01,2013-01-06 17:20:00,
2013-01-06 12:25:00,44.6,35.4,30.06,SSE,165,3.0,5.0,70,0.00,,SCT200,0.00,VWS V14.01,2013-01-06 17:25:00,
2013-01-06 12:30:00,45.2,36.0,30.05,SSE,157,0.0,4.0,70,0.00,,SCT200,0.00,VWS V14.01,2013-01-06 17:30:00,
2013-01-06 12:35:00,45.6,35.3,30.05,SSE,158,3.0,6.0,67,0.00,,FEW200,0.00,VWS V14.01,2013-01-06 17:35:00,
2013-01-06 12:40:00,45.5,36.3,30.05,SSE,157,2.0,6.0,70,0.00,,FEW200,0.00,VWS V14.01,2013-01-06 17:40:00,
2013-01-06 12:45:00,45.5,37.7,30.04,SSE,157,3.0,5.0,74,0.00,,FEW200,0.00,VWS V14.01,2013-01-06 17:45:00,
2013-01-06 12:50:00,45.4,35.8,30.04,SSE,150,2.0,4.0,69,0.00,,FEW200,0.00,VWS V14.01,2013-01-06 17:50:00,
2013-01-06 12:55:00,45.5,35.6,30.03,SSE,150,3.0,3.0,68,0.00,,FEW200,0.00,VWS V14.01,2013-01-06 17:55:00,
2013-01-06 13:00:00,45.7,37.2,30.03,SSE,150,5.0,5.0,72,0.00,,FEW200,0.00,VWS V14.01,2013-01-06 18:00:00,
2013-01-06 13:05:00,45.7,38.6,30.03,SSE,157,7.0,7.0,76,0.00,,FEW200,0.00,VWS V14.01,2013-01-06 18:05:00,
2013-01-06 13:10:00,45.2,38.4,30.03,SSE,151,5.0,6.0,77,0.00,,FEW200,0.00,VWS V14.01,2013-01-06 18:10:00,
2013-01-06 13:15:00,45.0,38.2,30.03,SSE,159,6.0,7.0,77,0.00,,FEW200,0.00,VWS V14.01,2013-01-06 18:15:00,
2013-01-06 13:20:00,44.7,36.9,30.03,SSE,161,5.0,6.0,74,0.00,,FEW200,0.00,VWS V14.01,2013-01-06 18:20:00,
2013-01-06 13:25:00,44.8,36.3,30.03,South,169,4.0,6.0,72,0.00,,FEW200,0.00,VWS V14.01,2013-01-06 18:25:00,
2013-01-06 13:30:00,45.0,36.5,30.03,South,173,4.0,7.0,72,0.00,,FEW200,0.00,VWS V14.01,2013-01-06 18:30:00,
2013-01-06 13:35:00,45.1,35.5,30.02,SSE,168,6.0,6.0,69,0.00,,FEW200,0.00,VWS V14.01,2013-01-06 18:35:00,
2013-01-06 13:40:00,45.3,33.9,30.02,SSE,165,7.0,7.0,64,0.00,,FEW200,0.00,VWS V14.01,2013-01-06 18:40:00,
2013-01-06 13:45:00,45.4,35.5,30.03,SSE,161,5.0,7.0,68,0.00,,FEW200,0.00,VWS V14.01,2013-01-06 18:45:00,
2013-01-06 13:50:00,45.6,36.4,30.02,SSE,161,5.0,9.0,70,0.00,,FEW200,0.00,VWS V14.01,2013-01-06 18:50:00,
2013-01-06 13:55:00,45.6,35.3,30.02,SSE,165,6.0,7.0,67,0.00,,FEW200,0.00,VWS V14.01,2013-01-06 18:55:00,
2013-01-06 14:00:00,45.7,34.6,30.02,SSE,166,7.0,9.0,65,0.00,,FEW200,0.00,VWS V14.01,2013-01-06 19:00:00,
2013-01-06 14:05:00,45.5,36.3,30.02,South,175,6.0,7.0,70,0.00,,FEW200,0.00,VWS V14.01,2013-01-06 19:05:00,
2013-01-06 14:10:00,45.2,34.2,30.02,South,174,4.0,6.0,65,0.00,,FEW200,0.00,VWS V14.01,2013-01-06 19:10:00,
2013-01-06 14:15:00,45.5,37.4,30.02,SSE,157,6.0,9.0,73,0.00,,FEW200,0.00,VWS V14.01,2013-01-06 19:15:00,
2013-01-06 14:20:00,45.4,38.0,30.02,SSE,163,4.0,5.0,75,0.00,,FEW200,0.00,VWS V14.01,2013-01-06 19:20:00,
2013-01-06 14:25:00,45.3,38.2,30.02,South,173,4.0,5.0,76,0.00,,FEW200,0.00,VWS V14.01,2013-01-06 19:25:00,
2013-01-06 14:30:00,45.2,37.4,30.02,South,171,4.0,5.0,74,0.00,,FEW200,0.00,VWS V14.01,2013-01-06 19:30:00,
2013-01-06 14:35:00,45.0,36.5,30.02,South,173,6.0,6.0,72,0.00,,FEW200,0.00,VWS V14.01,2013-01-06 19:35:00,
2013-01-06 14:45:00,44.9,36.8,30.02,SSE,165,2.0,6.0,73,0.00,,FEW200,0.00,VWS V14.01,2013-01-06 19:45:00,
2013-01-06 14:51:00,44.9,37.1,30.01,South,169,3.0,6.0,74,0.00,,FEW200,0.00,VWS V14.01,2013-01-06 19:51:00,
2013-01-06 14:56:00,44.9,37.5,30.01,SSE,163,5.0,6.0,75,0.00,,FEW200,0.00,VWS V14.01,2013-01-06 19:56:00,
2013-01-06 15:01:00,44.7,37.3,30.02,SSE,163,4.0,5.0,75,0.00,,FEW200,0.00,VWS V14.01,2013-01-06 20:01:00,
2013-01-06 15:06:00,44.7,37.6,30.02,SSE,163,4.0,5.0,76,0.00,,FEW200,0.00,VWS V14.01,2013-01-06 20:06:00,
2013-01-06 15:11:00,44.6,37.8,30.02,SSE,161,4.0,5.0,77,0.00,,FEW200,0.00,VWS V14.01,2013-01-06 20:11:00,
2013-01-06 15:13:00,44.5,37.8,30.02,SSE,161,4.0,5.0,77,0.00,,FEW200,0.00,VWS V14.01,2013-01-06 20:13:00,
2013-01-06 15:18:00,44.3,37.9,30.01,SSE,161,3.0,5.0,78,0.00,,FEW200,0.00,VWS V14.01,2013-01-06 20:18:00,
2013-01-06 15:23:00,44.1,37.7,30.01,SSE,162,3.0,4.0,78,0.00,,FEW200,0.00,VWS V14.01,2013-01-06 20:23:00,
2013-01-06 15:28:00,44.2,37.1,30.01,SSE,162,5.0,5.0,76,0.00,,FEW200,0.00,VWS V14.01,2013-01-06 20:28:00,
2013-01-06 15:33:00,44.2,36.8,30.01,SSE,163,4.0,4.0,75,0.00,,FEW200,0.00,VWS V14.01,2013-01-06 20:33:00,
2013-01-06 15:38:00,44.4,37.0,30.01,SSE,163,3.0,4.0,75,0.00,,FEW200,0.00,VWS V14.01,2013-01-06 20:38:00,
2013-01-06 15:43:00,44.4,36.7,30.01,South,174,2.0,5.0,74,0.00,,FEW200,0.00,VWS V14.01,2013-01-06 20:43:00,
2013-01-06 15:48:00,44.5,36.4,30.01,South,169,5.0,6.0,73,0.00,,FEW200,0.00,VWS V14.01,2013-01-06 20:48:00,
2013-01-06 15:53:00,44.6,36.2,30.01,South,173,4.0,6.0,72,0.00,,FEW200,0.00,VWS V14.01,2013-01-06 20:53:00,
2013-01-06 15:58:00,44.7,35.5,30.00,SSE,167,6.0,10.0,70,0.00,,FEW200,0.00,VWS V14.01,2013-01-06 20:58:00,
2013-01-06 16:01:00,44.8,35.6,30.00,South,173,4.0,6.0,70,0.00,,FEW200,0.00,VWS V14.01,2013-01-06 21:01:00,
2013-01-06 16:06:00,44.8,35.3,30.00,SSE,153,5.0,9.0,69,0.00,,FEW200,0.00,VWS V14.01,2013-01-06 21:06:00,
2013-01-06 16:11:00,45.0,34.3,30.00,SSE,165,5.0,6.0,66,0.00,,FEW200,0.00,VWS V14.01,2013-01-06 21:11:00,
2013-01-06 16:16:00,45.4,34.0,30.00,South,169,5.0,6.0,64,0.00,,FEW200,0.00,VWS V14.01,2013-01-06 21:16:00,
2013-01-06 16:21:00,45.6,33.3,30.00,SSE,165,10.0,10.0,62,0.00,,FEW200,0.00,VWS V14.01,2013-01-06 21:21:00,
2013-01-06 16:26:00,45.8,33.5,30.00,SSE,160,9.0,9.0,62,0.00,,FEW200,0.00,VWS V14.01,2013-01-06 21:26:00,
2013-01-06 16:31:00,45.7,33.8,30.01,South,178,4.0,9.0,63,0.00,,FEW200,0.00,VWS V14.01,2013-01-06 21:31:00,
2013-01-06 16:36:00,45.5,33.7,30.01,SSE,153,2.0,6.0,63,0.00,,FEW200,0.00,VWS V14.01,2013-01-06 21:36:00,
2013-01-06 16:41:00,45.3,33.9,30.01,SSE,152,4.0,7.0,64,0.00,,SCT250,0.00,VWS V14.01,2013-01-06 21:41:00,
2013-01-06 16:46:00,45.0,34.0,30.01,SSE,167,3.0,7.0,65,0.00,,SCT250,0.00,VWS V14.01,2013-01-06 21:46:00,
2013-01-06 16:51:00,44.7,34.4,30.01,SSE,162,4.0,9.0,67,0.00,,SCT250,0.00,VWS V14.01,2013-01-06 21:51:00,
2013-01-06 16:56:00,44.5,34.2,30.01,SSE,165,3.0,10.0,67,0.00,,SCT250,0.00,VWS V14.01,2013-01-06 21:56:00,
2013-01-06 17:01:00,44.3,34.0,30.01,SSE,167,7.0,8.0,67,0.00,,SCT250,0.00,VWS V14.01,2013-01-06 22:01:00,
2013-01-06 17:06:00,44.2,33.6,30.01,SSE,165,4.0,6.0,66,0.00,,SCT250,0.00,VWS V14.01,2013-01-06 22:06:00,
2013-01-06 17:11:00,44.1,34.2,30.01,South,181,3.0,6.0,68,0.00,,SCT250,0.00,VWS V14.01,2013-01-06 22:11:00,
2013-01-06 17:16:00,43.9,34.4,30.01,South,169,5.0,6.0,69,0.00,,SCT250,0.00,VWS V14.01,2013-01-06 22:16:00,
2013-01-06 17:21:00,43.9,34.8,30.01,SE,137,6.0,6.0,70,0.00,,SCT250,0.00,VWS V14.01,2013-01-06 22:21:00,
2013-01-06 17:26:00,43.8,35.0,30.01,South,169,4.0,6.0,71,0.00,,SCT250,0.00,VWS V14.01,2013-01-06 22:26:00,
2013-01-06 17:32:00,43.8,34.7,30.01,SSE,167,7.0,7.0,70,0.00,,SCT150,0.00,VWS V14.01,2013-01-06 22:32:00,
2013-01-06 17:36:00,43.7,34.9,30.01,South,169,1.0,7.0,71,0.00,,SCT150,0.00,VWS V14.01,2013-01-06 22:36:00,
2013-01-06 17:42:00,43.6,35.5,30.02,SSE,165,3.0,6.0,73,0.00,,SCT150,0.00,VWS V14.01,2013-01-06 22:42:00,
2013-01-06 17:47:00,43.4,35.3,30.02,SSE,168,2.0,4.0,73,0.00,,SCT150,0.00,VWS V14.01,2013-01-06 22:47:00,
2013-01-06 17:52:00,43.3,35.9,30.02,South,172,4.0,9.0,75,0.00,,SCT150,0.00,VWS V14.01,2013-01-06 22:52:00,
2013-01-06 17:57:00,43.2,36.2,30.02,SSE,168,7.0,7.0,76,0.00,,SCT150,0.00,VWS V14.01,2013-01-06 22:57:00,
2013-01-06 18:02:00,43.1,36.1,30.02,South,173,4.0,6.0,76,0.00,,SCT150,0.00,VWS V14.01,2013-01-06 23:02:00,
2013-01-06 18:07:00,43.0,36.3,30.02,SSE,161,3.0,4.0,77,0.00,,SCT150,0.00,VWS V14.01,2013-01-06 23:07:00,
2013-01-06 18:12:00,43.0,36.3,30.02,SSE,155,3.0,5.0,77,0.00,,SCT150,0.00,VWS V14.01,2013-01-06 23:12:00,
2013-01-06 18:17:00,42.9,36.5,30.02,SSE,159,3.0,5.0,78,0.00,,SCT150,0.00,VWS V14.01,2013-01-06 23:17:00,
2013-01-06 18:22:00,42.9,36.5,30.03,SSE,159,4.0,5.0,78,0.00,,SCT150,0.00,VWS V14.01,2013-01-06 23:22:00,
2013-01-06 18:27:00,42.9,36.8,30.03,South,176,5.0,6.0,79,0.00,,SCT150,0.00,VWS V14.01,2013-01-06 23:27:00,
2013-01-06 18:32:00,42.8,37.1,30.03,South,169,2.0,5.0,80,0.00,,SCT150,0.00,VWS V14.01,2013-01-06 23:32:00,
2013-01-06 18:37:00,42.7,37.0,30.03,SSE,161,1.0,6.0,80,0.00,,SCT150,0.00,VWS V14.01,2013-01-06 23:37:00,
2013-01-06 18:42:00,42.7,37.0,30.03,South,176,4.0,5.0,80,0.00,,BKN070,0.00,VWS V14.01,2013-01-06 23:42:00,
2013-01-06 18:47:00,42.7,37.3,30.03,SSE,166,0.0,5.0,81,0.00,,BKN070,0.00,VWS V14.01,2013-01-06 23:47:00,
2013-01-06 18:52:00,42.7,37.6,30.04,SSE,167,3.0,3.0,82,0.00,,BKN070,0.00,VWS V14.01,2013-01-06 23:52:00,
2013-01-06 18:57:00,42.7,37.6,30.04,SSE,164,4.0,4.0,82,0.00,,BKN070,0.00,VWS V14.01,2013-01-06 23:57:00,
2013-01-06 19:02:00,42.6,37.5,30.04,SSE,164,0.0,0.0,82,0.00,,BKN070,0.00,VWS V14.01,2013-01-07 00:02:00,
2013-01-06 19:07:00,42.6,37.5,30.04,South,184,0.0,0.0,82,0.00,,BKN070,0.00,VWS V14.01,2013-01-07 00:07:00,
2013-01-06 19:12:00,42.6,37.5,30.04,South,179,0.0,2.0,82,0.00,,OVC070,0.00,VWS V14.01,2013-01-07 00:12:00,
2013-01-06 19:17:00,42.7,37.3,30.04,South,170,0.0,3.0,81,0.00,,OVC070,0.00,VWS V14.01,2013-01-07 00:17:00,
2013-01-06 19:22:00,42.8,37.1,30.05,South,172,0.0,6.0,80,0.00,,OVC070,0.00,VWS V14.01,2013-01-07 00:22:00,
2013-01-06 19:27:00,42.9,36.8,30.05,SW,233,2.0,4.0,79,0.00,,OVC070,0.00,VWS V14.01,2013-01-07 00:27:00,
2013-01-06 19:32:00,43.0,36.6,30.05,South,170,0.0,3.0,78,0.00,,OVC070,0.00,VWS V14.01,2013-01-07 00:32:00,
2013-01-06 19:37:00,43.1,36.7,30.04,South,170,0.0,0.0,78,0.00,,OVC070,0.00,VWS V14.01,2013-01-07 00:37:00,
2013-01-06 19:42:00,43.2,36.5,30.05,South,170,0.0,0.0,77,0.00,,OVC070,0.00,VWS V14.01,2013-01-07 00:42:00,
2013-01-06 19:47:00,43.2,36.8,30.05,SW,234,1.0,3.0,78,0.00,,OVC070,0.00,VWS V14.01,2013-01-07 00:47:00,
2013-01-06 19:52:00,43.3,36.9,30.05,SW,234,1.0,1.0,78,0.00,,OVC070,0.00,VWS V14.01,2013-01-07 00:52:00,
2013-01-06 19:57:00,43.3,36.6,30.05,SW,233,2.0,3.0,77,0.00,,OVC070,0.00,VWS V14.01,2013-01-07 00:57:00,
2013-01-06 20:02:00,43.4,36.0,30.05,SW,233,0.0,0.0,75,0.00,,OVC070,0.00,VWS V14.01,2013-01-07 01:02:00,
2013-01-06 20:07:00,43.5,35.8,30.05,SW,233,0.0,0.0,74,0.00,,OVC070,0.00,VWS V14.01,2013-01-07 01:07:00,
2013-01-06 20:12:00,43.8,35.4,30.05,SW,233,0.0,1.0,72,0.00,,OVC070,0.00,VWS V14.01,2013-01-07 01:12:00,
2013-01-06 20:18:00,44.0,35.2,30.05,SW,233,0.0,0.0,71,0.00,,OVC070,0.00,VWS V14.01,2013-01-07 01:18:00,
2013-01-06 20:23:00,44.0,35.2,30.06,SW,233,2.0,2.0,71,0.00,,OVC070,0.00,VWS V14.01,2013-01-07 01:23:00,
2013-01-06 20:28:00,44.1,35.0,30.06,SW,233,2.0,3.0,70,0.00,,OVC070,0.00,VWS V14.01,2013-01-07 01:28:00,
2013-01-06 20:33:00,44.1,35.0,30.06,SW,233,3.0,3.0,70,0.00,,OVC070,0.00,VWS V14.01,2013-01-07 01:33:00,
2013-01-06 20:38:00,44.3,34.8,30.06,SW,236,4.0,4.0,69,0.00,,OVC070,0.00,VWS V14.01,2013-01-07 01:38:00,
2013-01-06 20:43:00,44.3,35.2,30.06,SW,236,2.0,4.0,70,0.00,,OVC070,0.00,VWS V14.01,2013-01-07 01:43:00,
2013-01-06 20:48:00,44.2,35.4,30.06,SW,236,2.0,3.0,71,0.00,,OVC070,0.00,VWS V14.01,2013-01-07 01:48:00,
2013-01-06 20:53:00,43.8,35.4,30.06,WSW,239,5.0,5.0,72,0.00,,OVC070,0.00,VWS V14.01,2013-01-07 01:53:00,
2013-01-06 20:58:00,43.8,35.0,30.06,WSW,248,1.0,2.0,71,0.00,,OVC070,0.00,VWS V14.01,2013-01-07 01:58:00,
2013-01-06 21:03:00,44.0,35.2,30.06,WSW,248,0.0,0.0,71,0.00,,OVC070,0.00,VWS V14.01,2013-01-07 02:03:00,
2013-01-06 21:08:00,44.1,35.0,30.06,SW,236,0.0,1.0,70,0.00,,OVC070,0.00,VWS V14.01,2013-01-07 02:08:00,
2013-01-06 21:13:00,44.0,35.9,30.07,SW,230,0.0,4.0,73,0.00,,OVC070,0.00,VWS V14.01,2013-01-07 02:13:00,
2013-01-06 21:18:00,43.8,36.4,30.07,SW,230,0.0,1.0,75,0.00,,OVC070,0.00,VWS V14.01,2013-01-07 02:18:00,
2013-01-06 21:23:00,43.5,36.1,30.07,SW,232,4.0,4.0,75,0.00,,OVC070,0.00,VWS V14.01,2013-01-07 02:23:00,
2013-01-06 21:28:00,43.6,35.5,30.07,WSW,246,3.0,4.0,73,0.00,,OVC070,0.00,VWS V14.01,2013-01-07 02:28:00,
2013-01-06 21:33:00,43.7,35.6,30.07,WSW,240,4.0,5.0,73,0.00,,OVC070,0.00,VWS V14.01,2013-01-07 02:33:00,
2013-01-06 21:38:00,43.8,36.1,30.07,SW,221,4.0,5.0,74,0.00,,OVC070,0.00,VWS V14.01,2013-01-07 02:38:00,
2013-01-06 21:43:00,43.8,36.1,30.07,WSW,246,2.0,3.0,74,0.00,,OVC070,0.00,VWS V14.01,2013-01-07 02:43:00,
2013-01-06 21:48:00,43.9,35.8,30.07,WSW,255,2.0,4.0,73,0.00,,OVC070,0.00,VWS V14.01,2013-01-07 02:48:00,
2013-01-06 21:53:00,44.0,35.6,30.08,WSW,246,5.0,5.0,72,0.00,,OVC070,0.00,VWS V14.01,2013-01-07 02:53:00,
2013-01-06 21:58:00,44.2,35.4,30.08,WSW,253,3.0,4.0,71,0.00,,OVC070,0.00,VWS V14.01,2013-01-07 02:58:00,
2013-01-06 22:03:00,44.3,35.2,30.08,WSW,241,1.0,5.0,70,0.00,,OVC070,0.00,VWS V14.01,2013-01-07 03:03:00,
2013-01-06 22:08:00,44.3,35.5,30.08,WSW,238,5.0,5.0,71,0.00,,OVC070,0.00,VWS V14.01,2013-01-07 03:08:00,
2013-01-06 22:13:00,44.3,35.5,30.08,WSW,250,5.0,6.0,71,0.00,,OVC070,0.00,VWS V14.01,2013-01-07 03:13:00,
2013-01-06 22:18:00,44.2,35.4,30.08,West,277,3.0,6.0,71,0.00,,OVC070,0.00,VWS V14.01,2013-01-07 03:18:00,
2013-01-06 22:23:00,44.4,34.9,30.08,WSW,255,3.0,6.0,69,0.00,,OVC070,0.00,VWS V14.01,2013-01-07 03:23:00,
2013-01-06 22:28:00,44.5,35.0,30.08,West,279,2.0,6.0,69,0.00,,OVC070,0.00,VWS V14.01,2013-01-07 03:28:00,
2013-01-06 22:33:00,44.6,35.1,30.08,WSW,251,2.0,4.0,69,0.00,,OVC070,0.00,VWS V14.01,2013-01-07 03:33:00,
2013-01-06 22:38:00,44.3,35.5,30.08,SW,231,3.0,5.0,71,0.00,,OVC070,0.00,VWS V14.01,2013-01-07 03:38:00,
2013-01-06 22:43:00,44.1,35.7,30.08,WSW,251,3.0,5.0,72,0.00,,OVC070,0.00,VWS V14.01,2013-01-07 03:43:00,
2013-01-06 22:48:00,43.8,35.7,30.08,WSW,244,0.0,2.0,73,0.00,,OVC070,0.00,VWS V14.01,2013-01-07 03:48:00,
2013-01-06 22:53:00,43.6,35.2,30.08,WSW,244,1.0,3.0,72,0.00,,OVC070,0.00,VWS V14.01,2013-01-07 03:53:00,
2013-01-06 22:58:00,43.6,35.2,30.09,West,269,3.0,4.0,72,0.00,,OVC070,0.00,VWS V14.01,2013-01-07 03:58:00,
2013-01-06 23:03:00,43.6,35.2,30.09,WSW,241,2.0,4.0,72,0.00,,OVC070,0.00,VWS V14.01,2013-01-07 04:03:00,
2013-01-06 23:08:00,43.7,34.9,30.09,West,260,4.0,5.0,71,0.00,,OVC070,0.00,VWS V14.01,2013-01-07 04:08:00,
2013-01-06 23:13:00,43.8,35.4,30.09,WSW,251,1.0,4.0,72,0.00,,OVC070,0.00,VWS V14.01,2013-01-07 04:13:00,
2013-01-06 23:18:00,43.7,35.3,30.09,West,268,4.0,6.0,72,0.00,,OVC070,0.00,VWS V14.01,2013-01-07 04:18:00,
2013-01-06 23:23:00,43.7,35.3,30.10,West,265,4.0,7.0,72,0.00,,OVC070,0.00,VWS V14.01,2013-01-07 04:23:00,
2013-01-06 23:28:00,43.6,35.2,30.09,West,261,3.0,6.0,72,0.00,,OVC070,0.00,VWS V14.01,2013-01-07 04:28:00,
2013-01-06 23:33:00,43.5,35.1,30.10,West,264,3.0,5.0,72,0.00,,OVC070,0.00,VWS V14.01,2013-01-07 04:33:00,
2013-01-06 23:39:00,43.4,35.0,30.10,West,261,3.0,5.0,72,0.00,,OVC070,0.00,VWS V14.01,2013-01-07 04:39:00,
2013-01-06 23:43:00,43.2,34.8,30.10,West,269,4.0,6.0,72,0.00,,OVC070,0.00,VWS V14.01,2013-01-07 04:43:00,
2013-01-06 23:49:00,43.1,34.7,30.09,West,264,3.0,6.0,72,0.00,,OVC070,0.00,VWS V14.01,2013-01-07 04:49:00,
2013-01-06 23:54:00,42.9,34.8,30.10,West,272,6.0,6.0,73,0.00,,OVC070,0.00,VWS V14.01,2013-01-07 04:54:00,
2013-01-06 23:59:00,42.8,34.4,30.10,WSW,253,3.0,5.0,72,0.00,,OVC070,0.00,VWS V14.01,2013-01-07 04:59:00,